sat.trackr.live / text

‹ back to catalog

STARLINK-3922

NORAD 52584 · 2022-051BA

PAYLOAD ACTIVE UNKNOWN

§ Identity

Operator
Country
US
Launch date
2022-05-13
Launch site
AFWTR
Launch vehicle
Mass (kg)
RCS (m²)

Purposes: comms

External: N2YO · Heavens-Above · Gunter

§ Orbital elements

Epoch: 2026-09-19T21:19:20.732160Z

Period
93.79 min
Inclination
53.1608°
Eccentricity
0.0001195
Mean motion
15.35392877 rev/d
Perigee alt
458.9 km
Apogee alt
460.6 km
Semi-major
6,837.9 km
B*
9.3531e-6
RAAN
320.3088°
Arg perigee
94.2053°
Mean anomaly
265.9086°
Rev number
24,099

§ Raw data

STARLINK-39221 52584U 22051BA  26262.88843440 -.00000054  00000+0  93531-5 0  99962 52584  53.1608 320.3088 0001195  94.2053 265.9086 15.35392877240992

JSON: /api/v1/satellites/52584 · /tle

For live sub-satellite position, see the globe view (requires WebGL).

§ Visibility from observer

Set your observer location to see the next 7 days of passes ≥ 10°. The values pass through the URL so the page stays shareable.

No JS? Fill the form by hand. The geolocation button needs JavaScript.